• MPC Preparation (Info)

  • MPEC 2014-R82 : 2014 RB13

    The following Minor Planet Electronic Circular may be linked-to from your own Web pages, but must not otherwise be redistributed electronically.

    A form allowing access to any MPEC is at the bottom of this page.


    Read MPEC 2014-R81 Read MPEC 2014-R83


    M.P.E.C. 2014-R82                                Issued 2014 Sept. 11, 14:13 UT
    
         The Minor Planet Electronic Circulars contain information on unusual
             minor planets and routine data on comets.  They are published
       on behalf of Commission 20 of the International Astronomical Union by the
              Minor Planet Center, Smithsonian Astrophysical Observatory,
                              Cambridge, MA 02138, U.S.A.
    
                 Prepared using the Tamkin Foundation Computer Network
    
                                  MPC@CFA.HARVARD.EDU
                URL https://www.minorplanetcenter.net/    ISSN 1523-6714
    
                                       2014 RB13
    
    Observations:
         K14R13B* C2014 09 04.25672 18 00 24.368+36 29 16.15         20.5 iLER082F51
         K14R13B  C2014 09 04.26969 18 00 24.620+36 29 07.39         20.3 iLER082F51
         K14R13B  C2014 09 04.28267 18 00 24.868+36 28 58.43         20.5 iLER082F51
         K14R13B  C2014 09 06.24242 18 01 20.83 +36 06 06.9          20.7 RtER082F51
         K14R13B  C2014 09 06.25543 18 01 21.17 +36 05 57.6          21.1 RtER082F51
         K14R13B HC2014 09 07.15560 18 01 51.23 +35 55 00.3                qER082H21
         K14R13B HC2014 09 07.17451 18 01 51.75 +35 54 46.4          21   VqER082H21
         K14R13B KC2014 09 11.24481 18 04 46.57 +35 02 46.2          20.2 RoER082291
         K14R13B KC2014 09 11.24919 18 04 46.77 +35 02 42.8          20.0 RoER082291
         K14R13B KC2014 09 11.25358 18 04 46.96 +35 02 39.1          20.6 RoER082291
    
    Observer details:
    291 LPL/Spacewatch II.  Observers T. H. Bressi, A. F. Tubbiolo.  1.8-m f/2.7
        reflector + CCD.
    F51 Pan-STARRS 1, Haleakala.  Observers N. Primak, A. Schultz, T. Goggia,
        M. Willman.  Measurers P. Veres, B. Bolin, K. Chambers, S. Chastel,
        L. Denneau, H. Flewelling, M. Huber, E. Magnier, E. Schunova, R. Wainscoat,
        C. Waters.  1.8-m Ritchey-Chretien + CCD.
    H21 Astronomical Research Observatory, Westfield.  Observer R. Holmes.
        Measurers L. Buzzi, S. Foglia, T. Vorobjov, T. Linder.  0.61-m f/4.0
        astrograph + CCD.
    
    Orbital elements:
    2014 RB13                                                Earth MOID = 0.1725 AU
    Epoch 2014 Dec. 9.0 TT = JDT 2457000.5                  MPC
    M   7.13137              (2000.0)            P               Q
    n   0.30778309     Peri.  159.58619     +0.88013860     -0.31856632
    a   2.1725655      Node   224.45925     +0.33505138     +0.94208293
    e   0.4730151      Incl.   30.16573     +0.33629842     -0.10485827
    P   3.20           H   19.0           G   0.15           U   7
    Residuals in seconds of arc
    140904 F51  0.0   0.3-    140906 F51  0.1+  0.1-    140911 291  0.1+  0.0
    140904 F51  0.0   0.1-    140907 H21  0.2+  0.2-    140911 291  0.2-  0.1-
    140904 F51  0.1-  0.0     140907 H21  0.9-  0.2+
    140906 F51  0.2+  0.2-    140911 291  0.2+  0.2-
    
    Ephemeris:
    2014 RB13                a,e,i = 2.17, 0.47, 30                  q = 1.1449
    Date    TT    R. A. (2000) Decl.     Delta      r     Elong.  Phase     V
    2014 08 12    18 06 49.4 +39 16 12   0.8520  1.5171   108.5    39.3    21.1
    ...
    2014 08 27    17 59 05.0 +37 52 28   0.8173  1.4278   102.2    43.8    21.0
    ...
    2014 09 04    18 00 18.3 +36 32 09   0.7958  1.3824    99.3    46.0    21.0
    ...
    2014 09 10    18 03 47.2 +35 19 12   0.7776  1.3498    97.4    47.7    20.9
    2014 09 11    18 04 34.9 +35 06 04   0.7744  1.3445    97.2    48.0    20.9
    2014 09 12    18 05 26.3 +34 52 40   0.7711  1.3392    96.9    48.3    20.9
    ...
    2014 09 18    18 11 52.7 +33 26 25   0.7504  1.3086    95.3    49.9    20.8
    ...
    2014 09 26    18 24 00.4 +31 15 49   0.7197  1.2706    93.6    52.0    20.7
    ...
    2014 10 11    18 58 02.7 +26 16 37   0.6557  1.2102    91.7    55.6    20.5
    
    A. U. Tomatic                (C) Copyright 2014 MPC           M.P.E.C. 2014-R82
    

    Read MPEC 2014-R81 Read MPEC 2014-R83


    MPEC number:

    Enter an MPEC number in one of the following forms:

    • 1997-B01 (the full form)
    • J97B01 (the packed version of the full form)
    • B01 (the abbreviated form)